Regional Weather Roundup
Issued by NWS

Home | Current Version | Previous Version | Graphics & Text | Print | Product List | Glossary On
Versions: 1 2 3 4 5 6 7 8 9 10 11 12 13 14 15 16 17 18 19 20 21 22 23 24 25 26 27 28 29 30 31 32 33 34 35 36 37 38 39 40 41 42 43 44 45 46 47 48 49 50
000
ASUS43 KFSD 220802
RWRSD

WEATHER ROUNDUP FOR SOUTH DAKOTA
NATIONAL WEATHER SERVICE SIOUX FALLS SD
300 AM CDT FRI JUN 22 2018

NOTE: "FAIR" INDICATES FEW OR NO CLOUDS BELOW 12,000 FEET WITH NO
SIGNIFICANT WEATHER AND/OR OBSTRUCTIONS TO VISIBILITY.


SDZ001>005-009-010-012>017-220900-
NORTHWEST AND NORTH CENTRAL SOUTH DAKOTA

CITY           SKY/WX    TMP DP  RH WIND       PRES   REMARKS
BUFFALO          N/A     65  53  65 NW10      29.87R
FAITH            N/A     60  57  89 SE12      29.90F
MOBRIDGE       CLEAR     62  58  86 E6        29.90F
$$

SDZ012>016-024>037-041>051-057-063-072>074-220900-
SOUTHWEST AND SOUTH CENTRAL SOUTH DAKOTA

CITY           SKY/WX    TMP DP  RH WIND       PRES   REMARKS
RAPID CTY ARPT CLOUDY    60  55  83 S6        29.91R
PIERRE         PTCLDY    62  59  90 CALM      29.92F
CUSTER         CLOUDY    52  47  83 SW5       30.02R
ELLSWORTH AFB  CLOUDY    61  58  91 S6        29.91R
PHILIP         MOCLDY    61  57  87 E6        29.89F
PINE RIDGE     MOCLDY    63  53  70 S8        29.94F
SPEARFISH      FAIR      61  50  67 W6        29.93S
WINNER         FAIR      61  55  81 S5        29.95F
$$

SDZ004>011-016>023-039-040-220900-
NORTHEAST SOUTH DAKOTA

CITY           SKY/WX    TMP DP  RH WIND       PRES   REMARKS
ABERDEEN       PTCLDY    61  60  97 SE6       29.91F
WATERTOWN      CLOUDY    63  61  93 CALM      29.95R
SISSETON         N/A     68  57  68 SW7       29.91S
$$

SDZ017-020-022-023-036>040-048>070-220900-
SOUTHEAST SOUTH DAKOTA

CITY           SKY/WX    TMP DP  RH WIND       PRES   REMARKS
SIOUX FALLS    CLOUDY    59  57  93 CALM      29.95S
HURON          PTCLDY    63  58  83 CALM      29.94S
CHAMBERLAIN    PTCLDY    61  61 100 CALM      29.95F
MITCHELL       MOCLDY    64  60  87 SW6       29.95F
$$

ABBREVIATIONS USED IN REMARKS
   TC - TEMPERATURE IN CELSIUS
  WCI - WIND CHILL INDEX
   HX - HEAT INDEX
  VSB - VISIBILITY





USA.gov is the U.S. government's official web portal to all federal, state and local government web resources and services.